Zurück zum Katalog

SCOUT B DEB

AktivPO
NORAD 29279·DEBRIS·🇺🇸 United States

Gestartet Aug 8, 1968 von Vandenberg Space Force Base

Loading…

Nächste Überflüge (nächste 24 Stunden)

TLE

AktuellSource: Space-Track

Epoche: Sep 12, 2026, 03:03 UTC

1 29279U 68066N   26255.12730593  .00007990  00000-0  35592-2 0  9996
2 29279  80.5920 203.9152 0510199  30.4993 332.4797 13.70401614 63438

Verfolge SCOUT B DEB in Echtzeit mit AllMySat

Download on the App Store